Location: Poughquag
(41.6090°N, 73.6820°W)
Time: 03:34:59
(UTC-04:00)

Vanguard 2 Rocket - Pass Details

Date: 01 June 2020
Orbit: 556 x 3324 km, 32.9° (Epoch: 06 July)

Event Time Altitude Azimuth Distance (km) Brightness Sun altitude
Rises 14:41:02 0° 222° (SW) 3,366 10.3 60.1°
Reaches altitude 10° 14:43:23 10° 211° (SSW) 2,674 9.9 59.8°
Maximum altitude 14:49:04 32° 150° (SSE) 2,094 9.2 58.9°
Drops below altitude 10° 14:58:05 10° 94° (E) 4,333 10.2 57.4°
Sets 15:03:03 0° 86° (E) 5,838 10.7 56.5°
